Regional Weather Roundup
Issued by NWS

Home | Current Version | Previous Version | Text Only | Print | Product List | Glossary Off
Versions: 1 2 3 4 5 6 7 8 9 10 11 12 13 14 15 16 17 18 19 20 21 22 23 24 25 26 27 28 29 30 31 32 33 34 35 36 37 38 39 40 41 42 43 44 45 46 47 48 49 50

000
ASUS43 KTOP 041059
RWRKS

WEATHER ROUNDUP FOR KANSAS
NATIONAL WEATHER SERVICE GOODLAND KS
500 AM CST WED MAR 04 2015

NOTE:  "FAIR" INDICATES FEW OR NO CLOUDS BELOW 12,000 FEET WITH NO
SIGNIFICANT WEATHER AND/OR OBSTRUCTIONS TO VISIBILITY.

KSZ001>006-013>018-027>032-041>047-041200-
NORTHWEST KANSAS

CITY           SKY/WX    TMP DP  RH WIND       PRES   REMARKS
GOODLAND       LGT SNOW  16  13  88 N10       30.10R FOG     WCI   4
HAYS           MOCLDY    19   7  58 NE16      30.19R WCI   5
HILL CITY      LGT SNOW  18  13  80 NE10      30.19R WCI   6
RUSSELL        FLURRIES  19  13  77 N13       30.17S WCI   6
$$

KSZ061>065-074>080-084>089-041200-
SOUTHWEST KANSAS

CITY           SKY/WX    TMP DP  RH WIND       PRES   REMARKS
DODGE CITY     CLOUDY    20   9  62 NE20      30.09R WCI   4
ELKHART          N/A     23  16  75 NE12        N/A  WCI  12
GARDEN CITY    CLOUDY    19  10  68 NE15G24   30.09S WCI   5
GREAT BEND     CLOUDY    19   7  58 NE18      30.15S WCI   4
LIBERAL        CLOUDY    21  16  79 NE14      30.09R WCI   8
$$

KSZ066>073-081>083-090>101-041200-
SOUTHEAST KANSAS

CITY           SKY/WX    TMP DP  RH WIND       PRES   REMARKS
CHANUTE        CLOUDY    24  17  74 N17G31    30.10R WCI  11
COFFEYVILLE    CLOUDY    30  21  69 N24G33    30.07R WCI  16
HUTCHINSON     LGT SNOW  21  12  68 N16G25    30.16R WCI   7
MEDICINE LODGE   N/A     22  15  75 NE26G33   30.11R WCI   5
NEWTON         CLOUDY    19   7  58 N22       30.15R WCI   3
PARSONS        CLOUDY    30  21  69 N13G26    30.08S WCI  20
WICHITA INTL   LGT SNOW  21  16  81 N18       30.15R WCI   6
WICHITA JABRA  LGT SNOW  19  15  84 N21G28    30.15R FOG     WCI   3
WICHITA MCCONL LGTSLEET  21  18  86 NE21      30.13R WCI   6
WINFIELD       CLOUDY    24  17  74 N24G35    30.11R WCI   8
$$

KSZ007>012-019>026-033>040-048>060-102>105-041200-
NORTHEAST KANSAS

CITY           SKY/WX    TMP DP  RH WIND       PRES   REMARKS
CONCORDIA      CLOUDY    19  14  81 N13       30.21R WCI   6
EMPORIA        LGT SNOW  19  12  74 N17       30.17R WCI   4
LAWRENCE       CLOUDY    21   5  50 N14G25    30.21R WCI   8
MANHATTAN      CLOUDY    22   8  55 NE13G22   30.21R WCI  10
OLATHE IND     CLOUDY    20   7  57 N15G24    30.19R WCI   6
OLATHE EXE     CLOUDY    21   3  45 N21       30.16R WCI   5
SALINA         CLOUDY    23   5  46 N15       30.21R WCI  10
TOPEKA BILLARD CLOUDY    21   6  52 N17G25    30.22R WCI   7
TOPEKA FORBES  CLOUDY    22   6  50 N16G25    30.20R WCI   8
$$



USA.gov is the U.S. government's official web portal to all federal, state and local government web resources and services.